FW4151 Weather Reports


time (UTC)temp
F
wind
direction
speed
knots
gust
knots
rain 1hr
in
rain 24hr
in
rain mn
in
humidity
%
barometer
mb
20260509104530 0 0.0 0.0 0.00 0.05 0.05 1009.7
20260509103030 0 0.0 0.0 0.00 0.05 0.05 1009.8
20260509101545 0 0.0 0.0 0.00 0.05 0.05 1009.8
20260509100032 0 0.0 0.0 0.00 0.05 0.05 1009.6
20260509094528 0 0.0 0.0 0.00 0.05 0.05 1009.8
20260509093026 0 0.0 0.0 0.00 0.05 0.05 1009.7
20260509091523 45 0.0 0.0 0.01 0.05 0.05 93 1009.7
20260509090033 45 0.0 0.0 0.01 0.05 0.05 93 1009.9
20260509084520 45 0.0 0.0 0.01 0.05 0.05 93 1009.9
20260509083031 45 0.0 0.0 0.01 0.05 0.05 93 1010.0
20260509081518 45 0.0 0.0 0.00 0.04 0.04 93 1010.2
20260509080020 45 0.0 0.0 0.01 0.04 0.04 93 1010.5
20260509074516 45 0.0 0.0 0.01 0.04 0.04 93 1010.5
20260509073023 46 0.0 0.0 0.01 0.04 0.04 92 1010.5
20260509071515 46 0.0 0.0 0.02 0.04 0.04 92 1010.5
20260509070013 45 0.0 0.0 0.02 0.03 0.03 92 1010.5
20260509064512 46 0.0 0.0 0.03 0.03 0.03 91 1010.4
20260509063019 46 0.0 0.0 0.03 0.03 0.03 91 1010.8
20260509061508 46 0.0 0.0 0.02 0.02 0.02 91 1010.9
20260509060007 45 0.0 0.0 0.01 0.01 0.01 91 1011.0
20260509054505 45 0.0 0.0 0.00 0.00 0.00 90 1011.2
20260509053003 45 0.0 0.0 0.00 0.00 0.00 89 1011.2
20260509051502 44 0.0 0.0 0.00 0.00 0.00 88 1011.1
20260509050100 44 0.0 0.0 0.00 0.00 0.00 87 1011.0
20260509044653 44 0.0 0.0 0.00 0.00 0.00 86 1011.1
20260509043138 44 0.0 0.0 0.00 0.00 0.00 86 1011.2
20260509041554 44 0.0 0.0 0.00 0.00 0.00 85 1011.4
20260509040052 43 0.0 0.0 0.00 0.00 0.00 85 1011.5
20260509034552 43 0.0 0.0 0.00 0.00 0.00 84 1011.5
20260509033051 43 0.0 0.0 0.00 0.00 0.00 84 1011.4
20260509031558 43 0.0 0.0 0.00 0.00 0.00 82 1011.3
20260509030108 43 0.0 0.0 0.00 0.00 0.00 80 1011.4
20260509024547 43 0.0 0.0 0.00 0.00 0.00 78 1011.6
20260509023047 44 0.0 0.0 0.00 0.00 0.00 78 1011.5
20260509021547 44 0.0 0.0 0.00 0.00 0.00 77 1011.5
20260509020050 44 0.0 0.0 0.00 0.00 0.00 76 1011.7
20260509014545 45 0.0 0.0 0.00 0.00 0.00 73 1011.6
20260509013045 45 0.0 0.0 0.00 0.00 0.00 72 1011.5
20260509011545 46 0.0 0.0 0.00 0.00 0.00 68 1011.2
20260509010044 46 0.0 0.0 0.00 0.00 0.00 67 1011.2
20260509004553 47 0.0 0.0 0.00 0.00 0.00 60 1010.9
20260509003051 47 0.0 0.0 0.00 0.00 0.00 62 1010.8
20260509001543 48 0.0 0.0 0.00 0.00 0.00 61 1010.7
20260509000042 49 0.0 0.0 0.00 0.00 0.00 59 1010.6
20260508234542 50 0.0 0.0 0.00 0.00 0.00 55 1010.4
20260508233042 51 0.0 0.0 0.00 0.00 0.00 53 1010.2
20260508231540 52 0.0 0.0 0.00 0.00 0.00 55 1010.0
20260508230040 52 0.0 0.0 0.00 0.00 0.00 51 1010.1
20260508224549 53 0.0 0.0 0.00 0.00 0.00 48 1010.1
20260508223047 54 0.0 0.0 0.00 0.00 0.00 48 1010.1
20260508221537 54 0.0 0.0 0.00 0.00 0.00 47 1010.1
20260508220044 54 0.0 0.0 0.00 0.00 0.00 48 1010.0
20260508214632 53 0.0 0.0 0.00 0.00 0.00 49 1010.1
20260508213032 53 0.0 0.0 0.00 0.00 0.00 50 1010.3
20260508211533 53 0.0 0.0 0.00 0.00 0.00 47 1010.3
20260508210032 53 0.0 0.0 0.00 0.00 0.00 46 1010.3
20260508204533 53 0.0 0.0 0.00 0.00 0.00 49 1010.3
20260508203030 53 0.0 0.0 0.00 0.00 0.00 48 1010.4
20260508201531 53 0.0 0.0 0.00 0.00 0.00 50 1010.6
20260508200032 53 0.0 0.0 0.00 0.00 0.00 48 1010.7
20260508194534 52 0.0 0.0 0.00 0.00 0.00 51 1011.0
20260508193023 52 0.0 0.0 0.00 0.00 0.00 52 1011.0
20260508191532 51 0.0 0.0 0.00 0.00 0.00 53 1011.3
20260508190022 51 0.0 0.0 0.00 0.00 0.00 56 1011.4
20260508184521 50 0.0 0.0 0.00 0.00 0.00 58 1011.5
20260508183025 49 0.0 0.0 0.00 0.00 0.00 58 1011.8
20260508181515 48 0.0 0.0 0.00 0.00 0.00 60 1011.9
20260508180009 47 0.0 0.0 0.00 0.00 0.00 67 1011.9
20260508174508 47 0.0 0.0 0.00 0.00 0.00 69 1011.9
20260508173006 47 0.0 0.0 0.00 0.00 0.00 68 1011.9
20260508171508 46 0.0 0.0 0.00 0.00 0.00 71 1011.9
20260508170100 45 0.0 0.0 0.00 0.00 0.00 77 1012.0
20260508164558 43 0.0 0.0 0.00 0.00 0.00 77 1012.1
20260508163056 43 0.0 0.0 0.00 0.00 0.00 77 1012.2
20260508161559 43 0.0 0.0 0.00 0.00 0.00 73 1012.1
20260508160054 44 0.0 0.0 0.00 0.00 0.00 73 1011.8
20260508154608 44 0.0 0.0 0.00 0.00 0.00 76 1011.8
20260508153048 42 0.0 0.0 0.00 0.00 0.00 78 1011.5
20260508151550 41 0.0 0.0 0.00 0.00 0.00 79 1011.6
20260508150057 41 0.0 0.0 0.00 0.00 0.00 83 1011.9
20260508144546 40 0.0 0.0 0.00 0.00 0.00 86 1011.9
20260508143147 40 0.0 0.0 0.00 0.00 0.00 84 1011.9
20260508141544 41 0.0 0.0 0.00 0.00 0.00 82 1012.0
20260508140050 41 0.0 0.0 0.00 0.00 0.00 83 1011.8
20260508134542 42 0.0 0.0 0.00 0.00 0.00 80 1011.9
20260508133041 42 0.0 0.0 0.00 0.00 0.00 80 1011.2
20260508131540 41 0.0 0.0 0.00 0.00 0.00 80 1011.0
20260508130040 41 0.0 0.0 0.00 0.00 0.00 78 1011.3
20260508124538 41 0.0 0.0 0.00 0.00 0.00 79 1011.1
20260508123038 40 0.0 0.0 0.00 0.00 0.00 79 1011.1
20260508121537 40 0.0 0.0 0.00 0.00 0.00 80 1011.2
20260508120036 40 0.0 0.0 0.00 0.00 0.00 81 1011.2
20260508114535 39 0.0 0.0 0.00 0.00 0.00 83 1011.3
20260508113033 39 0.0 0.0 0.00 0.00 0.00 83 1011.1
20260508111531 0 0.0 0.0 0.00 0.00 0.00 1011.2
20260508110027 0 0.0 0.0 0.00 0.00 0.00 1011.0